Location: Zagreb
(45.8000°N, 16.0000°E)
Time: 19:22:45
(UTC+02:00)

SR - Pass Details

Date: 17 August 2020
Orbit: 583 x 873 km, 66.7° (Epoch: 28 September)

Event Time Altitude Azimuth Distance (km) Brightness Sun altitude
Rises 19:57:39 0° 184° (S) 2,968 ? -0.4°
Reaches altitude 10° 20:00:13 10° 173° (S) 2,017 ? -0.8°
Maximum altitude 20:04:06 29° 114° (ESE) 1,129 ? -1.4°
Drops below altitude 10° 20:07:51 10° 54° (NE) 1,935 ? -2.1°
Sets 20:10:15 0° 43° (NE) 2,824 ? -2.4°
